Flag for Finland Weather past 2 weeks in Vaasa, Finland

Now
32 °F

Overcast.


Feels Like: 19 °F
Forecast: 21 / 32 °F
Wind: 22 mph from South

Location: Vaasa Airport

Current Time: Jan 26, 2015 at 8:40:34 AM

Latest Report: Jan 26, 2015 at 8:20 AM


Visibility: N/A

Pressure: 29.83 "Hg

Humidity: 87%

Dew point: 28 °F

Location of VaasaLocation

Historic Weather in Vaasa — Graph

°F

Vaasa temperature yesterday

Maximum temperature yesterday: 34 °F (at 8:50 AM)
Minimum temperature yesterday: 30 °F (at 2:20 PM)
Average temperature yesterday: 32 °F

Past Weeks' High & Low Weather Summary

 TemperatureHumidityPressure
High39 °F (Jan 16, 10:20 PM)100% (Jan 14, 12:20 AM)30.48 "Hg (Jan 14, 12:20 AM)
Low3 °F (Jan 22, 5:50 AM)70% (Jan 17, 8:20 AM)28.88 "Hg (Jan 13, 2:50 AM)
Average22 °F88%29.70 "Hg
* Reported Jan 11 7:20 AM — Jan 26 7:20 AM, Vaasa, Weather by CustomWeather, © 2014

Note: Actual official high and low records may vary slightly from our data, if they occured in-between our weather recording intervals... More about our weather records

Advertising

Vaasa weather history for previous 24 hours

 ConditionsComfort  
Time TempWeatherWind HumidityBarometerVisibility
7:20 AM
Jan 26
32 °FOvercast.16 mph87%29.86 "HgN/A
6:50 AM32 °FOvercast.18 mph87%29.86 "HgN/A
6:20 AM32 °FOvercast.17 mph87%29.86 "HgN/A
5:50 AM32 °FOvercast.17 mph87%29.89 "HgN/A
5:20 AM32 °FOvercast.17 mph87%29.89 "HgN/A
4:50 AM32 °FOvercast.15 mph93%29.89 "HgN/A
4:20 AM32 °FOvercast.14 mph93%29.92 "HgN/A
3:50 AM32 °FLow clouds.13 mph93%29.95 "HgN/A
3:20 AM32 °FLow clouds.13 mph93%29.95 "HgN/A
2:50 AM32 °FOvercast.14 mph93%29.95 "HgN/A
2:20 AM32 °FOvercast.13 mph93%29.95 "HgN/A
1:50 AM32 °FOvercast.10 mph93%29.98 "HgN/A
1:20 AM32 °FLow clouds.12 mph93%29.98 "HgN/A
12:50 AM32 °FLow clouds.12 mph93%29.98 "HgN/A
12:20 AM32 °FLow clouds.10 mph93%29.98 "HgN/A
11:20 PM
Jan 25
32 °FPassing clouds.10 mph93%29.98 "HgN/A
10:50 PM30 °FPassing clouds.7 mph93%29.98 "HgN/A
10:20 PM32 °FPassing clouds.8 mph93%29.98 "HgN/A
9:50 PM32 °FOvercast.8 mph93%30.01 "HgN/A
9:20 PM32 °FOvercast.8 mph93%30.01 "HgN/A
8:50 PM32 °FLow clouds.8 mph93%30.01 "HgN/A
8:20 PM32 °FLow clouds.10 mph93%30.01 "HgN/A
7:50 PM32 °FOvercast.10 mph93%30.01 "HgN/A
7:20 PM32 °FOvercast.8 mph93%30.01 "HgN/A
6:50 PM32 °FOvercast.8 mph93%30.01 "HgN/A
6:20 PM32 °FLow clouds.9 mph93%30.01 "HgN/A
5:50 PM32 °FOvercast.7 mph93%30.01 "HgN/A
5:20 PM32 °FOvercast.5 mph93%30.01 "HgN/A
4:50 PM32 °FOvercast.5 mph93%29.98 "HgN/A
4:20 PM30 °FOvercast.5 mph100%29.98 "Hg4 mi
3:50 PM30 °FPartly sunny.3 mph93%29.98 "Hg4 mi
3:20 PM30 °FIce fog.5 mph93%29.98 "Hg2 mi
2:50 PM30 °FIce fog.6 mph100%29.98 "Hg2 mi
2:20 PM30 °FScattered clouds.5 mph93%29.95 "HgN/A
1:50 PM32 °FPartly sunny.3 mph93%29.98 "HgN/A
1:20 PM32 °FPartly sunny.3 mph93%29.98 "HgN/A
12:50 PM32 °FScattered clouds.2 mph93%29.95 "HgN/A
12:20 PM32 °FPartly sunny.3 mph93%29.95 "HgN/A
11:50 AM34 °FMore clouds than sun.5 mph93%29.95 "HgN/A
11:20 AM32 °FLow clouds.5 mph100%29.95 "HgN/A
10:50 AM32 °FMore clouds than sun.5 mph100%29.95 "HgN/A
10:20 AM34 °FMore clouds than sun.6 mph93%29.92 "HgN/A
9:50 AM32 °FMore clouds than sun.5 mph100%29.92 "HgN/A
9:20 AM32 °FLight snow. Mostly cloudy.6 mph100%29.92 "HgN/A
8:50 AM34 °FLight snow. Low clouds.7 mph93%29.92 "HgN/A
8:20 AM32 °FLight snow. Overcast.7 mph93%29.89 "HgN/A
Weather by CustomWeather, © 2014

See weather overviewHow to use our weather pages